CW7992 Weather Reports


Display with metric or nautical units.
time (UTC)temp
F
wind
direction
speed
MPH
gust
MPH
rain 1hr
in
rain 24hr
in
rain mn
in
humidity
%
barometer
mb
20260505160110 57 318 6.0 12.0 0.00 0.00 0.00 67 11.1
20260505152110 58 287 4.0 13.0 0.00 0.00 0.00 65 11.1
20260505140110 61 309 6.0 11.0 0.00 0.00 0.00 61 11.2
20260505130110 60 37 1.0 2.0 0.00 0.00 0.00 61 11.6
20260505124110 60 286 6.0 10.0 0.00 0.00 0.00 57 11.7
20260505122110 58 34 0.0 5.0 0.00 0.00 0.00 63 11.8
20260505121110 56 314 2.0 6.0 0.00 0.00 0.00 63 12.0
20260505115110 56 13 0.0 10.0 0.00 0.00 0.00 64 12.0
20260505113110 60 75 4.0 7.0 0.00 0.00 0.00 60 12.0
20260505112110 55 313 0.0 5.0 0.00 0.00 0.00 65 12.0
20260505110110 58 50 1.0 6.0 0.00 0.00 0.00 65 12.1
20260505102110 55 276 5.0 7.0 0.00 0.00 0.00 67 12.5
20260505101110 55 34 3.0 6.0 0.00 0.00 0.00 66 12.6
20260505100110 57 42 3.0 8.0 0.00 0.00 0.00 64 12.7
20260505095110 57 287 2.0 10.0 0.00 0.00 0.00 64 12.7
20260505094110 56 28 4.0 8.0 0.00 0.00 0.00 67 12.8
20260505093110 56 13 1.0 5.0 0.00 0.00 0.00 71 12.7
20260505092110 53 38 1.0 5.0 0.00 0.00 0.00 73 12.8
20260505091110 55 48 3.0 7.0 0.00 0.00 0.00 70 12.7
20260505090110 57 41 6.0 10.0 0.00 0.00 0.00 68 12.8
20260505084110 55 32 3.0 8.0 0.00 0.00 0.00 67 12.9
20260505083110 54 323 3.0 8.0 0.00 0.00 0.00 69 12.9
20260505082110 53 300 2.0 7.0 0.00 0.00 0.00 71 12.9
20260505081110 52 311 4.0 7.0 0.00 0.00 0.00 70 12.9
20260505080110 52 355 4.0 8.0 0.00 0.00 0.00 71 13.0
20260505074110 52 360 4.0 8.0 0.00 0.00 0.00 73 13.0
20260505073110 52 38 6.0 7.0 0.00 0.00 0.00 75 13.1
20260505072110 51 323 4.0 8.0 0.00 0.00 0.00 77 13.1
20260505071110 51 323 4.0 6.0 0.00 0.00 0.00 79 13.1
20260505070110 50 328 2.0 8.0 0.00 0.00 0.00 80 13.1
20260505065110 49 5 7.0 8.0 0.00 0.00 0.00 82 13.2
20260505064110 49 5 5.0 10.0 0.00 0.00 0.00 84 13.1
20260505063110 48 347 3.0 6.0 0.00 0.00 0.00 86 13.2
20260505062110 47 38 2.0 6.0 0.00 0.00 0.00 88 13.2
20260505061110 47 38 5.0 7.0 0.00 0.00 0.00 90 13.2
20260505060110 46 10 3.0 6.0 0.00 0.00 0.00 92 13.1
20260505055110 45 297 2.0 6.0 0.00 0.00 0.00 93 13.0
20260505054110 44 302 3.0 8.0 0.00 0.00 0.00 93 13.1
20260505053111 43 13 3.0 8.0 0.00 0.00 0.00 94 13.1
20260505052110 42 27 4.0 7.0 0.00 0.00 0.00 94 13.0
20260505051110 40 15 1.0 2.0 0.00 0.00 0.00 94 12.9
20260505050110 39 13 0.0 0.0 0.00 0.00 0.00 93 12.9
20260505041110 37 333 0.0 0.0 0.00 0.00 0.00 93 13.0
20260505040110 37 333 0.0 0.0 0.00 0.00 0.00 93 13.0
20260505035110 37 333 0.0 0.0 0.00 0.00 0.00 93 12.9
20260505034110 36 333 0.0 0.0 0.00 0.00 0.00 93 12.9
20260505032110 37 333 0.0 0.0 0.00 0.00 0.00 93 12.9
20260505031110 38 333 0.0 0.0 0.00 0.00 0.00 93 12.9
20260505030110 38 333 0.0 0.0 0.00 0.00 0.00 93 12.9
20260505025110 37 332 0.0 0.0 0.00 0.00 0.00 93 12.9
20260505024110 37 332 0.0 0.0 0.00 0.00 0.00 93 13.1
20260505023110 37 332 0.0 0.0 0.00 0.00 0.00 92 13.1
20260505022110 38 332 0.0 0.0 0.00 0.00 0.00 92 13.1
20260505021110 38 332 0.0 0.0 0.00 0.00 0.00 93 13.0
20260505020110 38 332 0.0 5.0 0.00 0.00 0.00 93 13.2
20260505015110 38 317 0.0 0.0 0.00 0.00 0.00 92 13.3
20260505014110 38 317 0.0 0.0 0.00 0.00 0.00 92 13.3
20260505013110 37 317 0.0 0.0 0.00 0.00 0.00 92 13.4
20260505012110 37 317 0.0 0.0 0.00 0.00 0.00 92 13.4
20260505011110 38 317 0.0 0.0 0.00 0.00 0.00 92 13.5
20260505005110 39 317 0.0 1.0 0.00 0.00 0.00 92 13.5
20260505004110 39 317 0.0 1.0 0.00 0.00 0.00 92 13.5
20260505003110 38 317 0.0 0.0 0.00 0.00 0.00 92 13.6
20260505002110 38 317 0.0 0.0 0.00 0.00 0.00 91 13.7
20260505001110 38 317 0.0 0.0 0.00 0.00 0.00 91 13.7
20260505000110 38 317 0.0 0.0 0.00 0.00 0.00 91 13.7
20260504233110 39 317 0.0 0.0 0.00 0.00 0.00 91 13.9
20260504232110 39 317 0.0 0.0 0.00 0.00 0.00 91 13.9
20260504231110 39 317 0.0 0.0 0.00 0.00 0.00 91 13.9
20260504230110 39 317 0.0 0.0 0.00 0.00 0.00 90 13.9
20260504225110 39 317 0.0 0.0 0.00 0.00 0.00 90 13.9
20260504224110 40 317 0.0 0.0 0.00 0.00 0.00 90 14.0
20260504223110 40 317 0.0 0.0 0.00 0.00 0.00 90 14.0
20260504222110 40 317 0.0 0.0 0.00 0.00 0.00 90 14.0
20260504221110 40 317 0.0 0.0 0.00 0.00 0.00 89 14.0
20260504215110 41 317 0.0 0.0 0.00 0.00 0.00 89 14.0
20260504214110 42 317 0.0 0.0 0.00 0.00 0.00 88 14.0
20260504213110 42 317 0.0 0.0 0.00 0.00 0.00 88 14.0
20260504211110 43 317 0.0 0.0 0.00 0.00 0.00 87 14.1
20260504210110 43 317 0.0 0.0 0.00 0.00 0.00 87 14.1
20260504205110 43 317 0.0 0.0 0.00 0.00 0.00 86 14.1
20260504204110 44 317 0.0 2.0 0.00 0.00 0.00 87 14.0
20260504203110 43 317 0.0 1.0 0.00 0.00 0.00 87 14.1
20260504202110 43 317 0.0 0.0 0.00 0.00 0.00 86 14.1
20260504201110 44 317 0.0 0.0 0.00 0.00 0.00 85 14.0
20260504200110 44 317 0.0 0.0 0.00 0.00 0.00 85 14.0
20260504194110 45 317 0.0 2.0 0.00 0.00 0.00 84 13.9
20260504193110 45 310 0.0 1.0 0.00 0.00 0.00 83 13.9
20260504192110 46 306 1.0 5.0 0.00 0.00 0.00 82 13.9
20260504191110 46 316 0.0 2.0 0.00 0.00 0.00 82 13.7
20260504190110 47 296 1.0 6.0 0.00 0.00 0.00 81 13.7
20260504185110 47 325 1.0 2.0 0.00 0.00 0.00 80 13.7
20260504184110 47 308 1.0 6.0 0.00 0.00 0.00 79 13.7
20260504183110 48 308 1.0 8.0 0.00 0.00 0.00 79 13.7
20260504182110 48 297 4.0 7.0 0.00 0.00 0.00 79 13.5
20260504181110 49 301 6.0 8.0 0.00 0.00 0.00 78 13.6
20260504180110 49 287 1.0 5.0 0.00 0.00 0.00 78 13.5
20260504174110 50 254 2.0 5.0 0.00 0.00 0.00 77 13.6
20260504173110 50 292 3.0 11.0 0.00 0.00 0.00 76 13.6
20260504172110 50 291 1.0 12.0 0.00 0.00 0.00 76 13.6
20260504171110 51 290 5.0 8.0 0.00 0.00 0.00 75 13.5
20260504170110 51 304 1.0 5.0 0.00 0.00 0.00 75 13.6